DW8961 Bonney Lake WA US current weather conditions

sailwx.info

Wind at 0 knots gusting 5

Air temperature 27.8° C
Dewpoint 10.9° C

Last reported at 2020-Jul-15 01:00 UTC.
Time now 2020-Jul-15 01:44 UTC

Location: N 47°14' W 122°10'.
View on Google Maps.

See reports from other nearby stations

  
Tides and Currents Weather Stations Pressure Air Temp Water Temp Dewpoint Dewpoint Depression Visibility Wind Speed Wind Dir Waves Ship Positions
date/time (UTC)wind fromknots sea level pressurealtimeterstation pressurevisibilityair tempwater tempwave heightnotes
2020-Jul-15 01:00 27.8
2020-Jul-15 00:50 022 0 gusting 4 27.2
2020-Jul-15 00:40 045 1 gusting 5 27.2
2020-Jul-15 00:30 27.2
2020-Jul-15 00:20 045 1 gusting 3 27.8
2020-Jul-15 00:10 315 1 gusting 6 28.3
2020-Jul-15 00:00 022 1 gusting 5 28.3
2020-Jul-14 23:50 292 1 gusting 6 28.3
2020-Jul-14 23:40 022 1 gusting 5 28.3
2020-Jul-14 23:30 292 0 gusting 5 28.3
2020-Jul-14 23:20 337 1 gusting 7 27.8
2020-Jul-14 23:10 337 2 gusting 6 27.8
2020-Jul-14 23:00 27.8
2020-Jul-14 22:50 315 1 gusting 6 27.8
2020-Jul-14 22:40 337 1 gusting 8 27.8
2020-Jul-14 22:30 270 1 gusting 6 27.8
2020-Jul-14 22:20 022 1 gusting 6 27.8
2020-Jul-14 22:10 022 3 gusting 6 27.8
2020-Jul-14 22:00 045 1 gusting 4 27.8
2020-Jul-14 21:50 292 2 gusting 5 27.8
2020-Jul-14 21:40 27.2
2020-Jul-14 21:30 292 2 gusting 6 27.2
2020-Jul-14 21:20 337 2 gusting 6 27.2
2020-Jul-14 21:10 045 2 gusting 6 26.7
2020-Jul-14 21:00 292 2 gusting 6 26.7
2020-Jul-14 20:50 292 2 gusting 8 26.7
2020-Jul-14 20:40 26.7
2020-Jul-14 20:30 337 1 gusting 6 26.1
2020-Jul-14 20:20 270 1 gusting 6 26.1
2020-Jul-14 20:10 292 1 gusting 6 26.1
2020-Jul-14 20:00 270 1 gusting 5 26.1
2020-Jul-14 19:50 270 1 gusting 6 25.6
2020-Jul-14 19:40 045 2 gusting 6 25.6
2020-Jul-14 19:30 270 1 gusting 4 25.0
2020-Jul-14 19:20 292 2 gusting 5 25.0
2020-Jul-14 19:10 022 1 gusting 5 25.0
2020-Jul-14 19:00 045 1 gusting 5 25.0
2020-Jul-14 18:50 315 2 gusting 6 25.0
2020-Jul-14 18:40 337 0 gusting 4 23.9
2020-Jul-14 18:30 022 1 gusting 8 23.3
2020-Jul-14 18:20 292 0 gusting 3 22.8
2020-Jul-14 18:10 292 2 gusting 5 22.8
2020-Jul-14 18:00 292 0 gusting 3 22.2
2020-Jul-14 17:50 292 1 gusting 5 21.7
2020-Jul-14 17:40 292 0 gusting 2 21.7
2020-Jul-14 17:30 292 2 gusting 4 21.1
2020-Jul-14 17:20 315 0 gusting 4 21.7
2020-Jul-14 17:00
2020-Jul-14 16:00
2020-Jul-14 15:00
2020-Jul-14 14:10
2020-Jul-14 14:00
2020-Jul-14 13:20
2020-Jul-14 13:10
2020-Jul-14 13:00
2020-Jul-14 12:40 10.0
2020-Jul-14 12:30 10.0
2020-Jul-14 12:20 10.0
2020-Jul-14 12:10 10.0
2020-Jul-14 12:00 10.0
2020-Jul-14 11:50
2020-Jul-14 11:40
2020-Jul-14 11:30
2020-Jul-14 11:20 11.1
2020-Jul-14 11:10
2020-Jul-14 11:00
2020-Jul-14 10:50
2020-Jul-14 10:40
2020-Jul-14 10:30
2020-Jul-14 10:20
2020-Jul-14 10:10
2020-Jul-14 10:00
2020-Jul-14 09:50
2020-Jul-14 09:40
2020-Jul-14 09:30
2020-Jul-14 09:20
2020-Jul-14 09:10 12.2
2020-Jul-14 09:00 12.2
2020-Jul-14 08:50 12.8
2020-Jul-14 08:40 12.8
2020-Jul-14 08:30 12.8
2020-Jul-14 08:20 13.3
2020-Jul-14 08:10 13.3
2020-Jul-14 08:00 13.3
2020-Jul-14 07:50 13.9
2020-Jul-14 07:40 14.4
2020-Jul-14 07:30 14.4
2020-Jul-14 07:20 15.0
2020-Jul-14 07:10 15.0
2020-Jul-14 07:00 15.0
2020-Jul-14 06:50 15.6
2020-Jul-14 06:40 15.6
2020-Jul-14 06:30 15.6
2020-Jul-14 06:20 16.1
2020-Jul-14 06:10
2020-Jul-14 06:00
2020-Jul-14 05:50
2020-Jul-14 05:40
2020-Jul-14 05:30
2020-Jul-14 05:20
2020-Jul-14 05:10 022 0 17.2
2020-Jul-14 05:00 022 0 17.2
2020-Jul-14 04:50 17.8
2020-Jul-14 04:40 17.8
2020-Jul-14 04:30 18.3
2020-Jul-14 04:20 18.3
2020-Jul-14 04:10 18.9
2020-Jul-14 04:00 022 0 gusting 4 18.9
2020-Jul-14 03:50 022 0 gusting 3 19.4
2020-Jul-14 03:40 022 0 gusting 2 19.4
2020-Jul-14 03:30 022 0 gusting 4 20.0
2020-Jul-14 03:20 022 0 gusting 4 20.6
2020-Jul-14 03:10 022 1 gusting 4 20.6
2020-Jul-14 03:00 022 0 gusting 3 20.6
2020-Jul-14 02:50 022 1 gusting 4 21.1
2020-Jul-14 02:40 022 0 gusting 5 21.1
2020-Jul-14 02:30 022 1 gusting 5 21.7
2020-Jul-14 02:20 022 1 gusting 6 21.7
2020-Jul-14 02:10 22.2
2020-Jul-14 02:00 292 1 gusting 4 22.2
2020-Jul-14 01:50 022 1 gusting 5 22.8
2020-Jul-14 01:40 337 2 gusting 6 22.8
2020-Jul-14 01:30 23.3
2020-Jul-14 01:20 045 2 gusting 6 24.4
2020-Jul-14 01:10 337 1 gusting 6 25.0
2020-Jul-14 01:00 022 2 gusting 7 25.0
2020-Jul-14 00:50 337 1 gusting 5 25.0
2020-Jul-14 00:40 270 2 gusting 6 25.0
2020-Jul-14 00:30 337 3 gusting 12 24.4
2020-Jul-14 00:20 337 2 gusting 6 24.4
2020-Jul-14 00:10 315 0 gusting 4 25.0
2020-Jul-14 00:00 292 2 gusting 7 25.6
2020-Jul-13 23:52 270 3 gusting 8 25.6
2020-Jul-13 23:40 270 3 gusting 8 25.6
2020-Jul-13 23:30 270 4 gusting 7 25.6
2020-Jul-13 23:20 270 2 gusting 6 25.6
2020-Jul-13 23:10 337 2 gusting 8 25.6
2020-Jul-13 23:00 270 2 gusting 6 25.6
2020-Jul-13 22:50 270 2 gusting 7 25.0
2020-Jul-13 22:40 292 2 gusting 6 25.0
2020-Jul-13 22:30 292 2 gusting 6 25.0
2020-Jul-13 22:20 270 2 gusting 6 24.4
2020-Jul-13 22:10 270 4 gusting 8 24.4
2020-Jul-13 21:52 270 4 gusting 9 24.4
2020-Jul-13 21:40 270 4 gusting 10 24.4
2020-Jul-13 21:30 292 3 gusting 10 24.4
2020-Jul-13 21:20 270 2 gusting 8 23.9
2020-Jul-13 21:10 270 3 gusting 8 23.9
2020-Jul-13 21:00 270 4 gusting 10 23.9
2020-Jul-13 20:50 292 3 gusting 9 23.9
2020-Jul-13 20:40 270 3 gusting 8 23.9
2020-Jul-13 20:30 270 2 gusting 6 23.9
2020-Jul-13 20:20 337 2 gusting 8 23.9
2020-Jul-13 20:10 270 2 gusting 6 23.9
2020-Jul-13 20:00 292 2 gusting 6 23.9
2020-Jul-13 19:50 292 2 gusting 8 23.3
2020-Jul-13 19:40 337 1 gusting 6 22.8
2020-Jul-13 19:30 270 2 gusting 7 22.8
2020-Jul-13 19:20 292 1 gusting 4 22.2
2020-Jul-13 19:10 270 3 gusting 6 22.2
2020-Jul-13 19:00 315 3 gusting 10 21.7
2020-Jul-13 18:50 22.2
2020-Jul-13 18:40 270 2 gusting 8 21.7
2020-Jul-13 18:30 292 2 gusting 6 21.1
2020-Jul-13 18:20 292 0 gusting 4 20.6
2020-Jul-13 18:10 270 1 gusting 6 20.6
2020-Jul-13 18:00 270 2 gusting 6 20.6
2020-Jul-13 17:50 292 1 gusting 6 20.6
2020-Jul-13 17:40 292 1 gusting 4 20.0
2020-Jul-13 17:30 292 1 gusting 5 19.4
2020-Jul-13 17:20 270 1 gusting 4 18.9
2020-Jul-13 17:10 270 1 gusting 5 18.3
2020-Jul-13 17:00 292 1 gusting 4 18.3
2020-Jul-13 16:50 270 1 gusting 4 18.3
2020-Jul-13 16:40 292 1 gusting 5 17.8
2020-Jul-13 16:30 315 0 gusting 4 17.2
2020-Jul-13 16:20 292 0 gusting 4 16.1
2020-Jul-13 16:10 292 0 gusting 4 15.0
2020-Jul-13 16:00 13.9
2020-Jul-13 15:50 13.3
2020-Jul-13 15:40 13.3
2020-Jul-13 15:30 12.8
2020-Jul-13 15:20 045 0 gusting 2 12.8
2020-Jul-13 15:10 12.2
2020-Jul-13 15:00 045 1 gusting 4 12.2
2020-Jul-13 14:50 12.2
2020-Jul-13 14:40 045 0 gusting 3 11.7
2020-Jul-13 14:30 11.7
2020-Jul-13 14:20 11.7
2020-Jul-13 14:10 11.1
2020-Jul-13 14:00 11.1
2020-Jul-13 13:50 045 0 gusting 2 11.1
2020-Jul-13 13:40 10.6
2020-Jul-13 13:30 10.6
2020-Jul-13 13:20 10.6
2020-Jul-13 13:10 10.6
2020-Jul-13 13:00 10.6
2020-Jul-13 12:50 10.6
2020-Jul-13 12:40 11.1
2020-Jul-13 12:30 11.1
2020-Jul-13 12:20 11.1
2020-Jul-13 12:10 045 1 gusting 3 11.1
2020-Jul-13 12:00 045 1 gusting 4 11.7
2020-Jul-13 11:50 11.7
2020-Jul-13 11:40 045 1 gusting 5 11.7
2020-Jul-13 11:30 045 1 gusting 3 11.7
2020-Jul-13 11:20 045 1 gusting 4 11.7
2020-Jul-13 11:10 022 1 gusting 5 11.7
2020-Jul-13 11:00 022 1 gusting 3 11.7
2020-Jul-13 10:50 045 2 gusting 5 11.7
2020-Jul-13 10:40 022 3 gusting 6 11.7
2020-Jul-13 10:30 022 1 gusting 4 11.7
2020-Jul-13 10:20 11.7
2020-Jul-13 10:10 12.2
2020-Jul-13 10:00 12.2
2020-Jul-13 09:50 022 0 gusting 2 12.2
2020-Jul-13 09:40 12.2
2020-Jul-13 09:30 12.8
2020-Jul-13 09:20 12.8
2020-Jul-13 09:10 022 1 gusting 4 12.8
2020-Jul-13 09:00 13.3
2020-Jul-13 08:50 022 0 gusting 4 13.3
2020-Jul-13 08:40 022 0 gusting 3 13.3
2020-Jul-13 08:30 022 3 gusting 6 13.9
2020-Jul-13 08:20 022 1 gusting 5 13.9
2020-Jul-13 08:10 022 2 gusting 6 13.9
2020-Jul-13 08:00 022 0 gusting 3 14.4
2020-Jul-13 07:50 022 2 gusting 5 14.4
2020-Jul-13 07:40 022 2 gusting 6 14.4
2020-Jul-13 07:30 022 1 gusting 4 15.0
2020-Jul-13 07:20 022 1 gusting 4 15.0
2020-Jul-13 07:10 022 2 gusting 6 15.0
2020-Jul-13 07:00 045 1 gusting 4 15.6
2020-Jul-13 06:50 045 1 gusting 4 15.6
2020-Jul-13 06:40 045 1 gusting 4 15.6
2020-Jul-13 06:30 045 1 gusting 4 15.6
2020-Jul-13 06:20 045 0 gusting 3 15.6
2020-Jul-13 06:10 045 1 gusting 4 16.1
2020-Jul-13 06:00 022 1 gusting 4 16.1
2020-Jul-13 05:50 022 1 gusting 5 16.1
2020-Jul-13 05:40 022 4 gusting 7 16.1
2020-Jul-13 05:30 022 5 gusting 10 16.1
2020-Jul-13 05:20 022 4 gusting 8 16.1
2020-Jul-13 05:10 022 4 gusting 6 16.1
2020-Jul-13 05:00 022 5 gusting 9 16.1
2020-Jul-13 04:50 022 6 gusting 10 16.7
2020-Jul-13 04:40 022 5 gusting 9 16.7
2020-Jul-13 04:30 022 4 gusting 7 17.2
2020-Jul-13 04:20 022 5 gusting 9 17.2
2020-Jul-13 04:10 022 5 gusting 10 17.8
2020-Jul-13 04:00 022 2 gusting 6 17.8
2020-Jul-13 03:50 022 1 gusting 9 18.3
2020-Jul-13 03:40 337 1 gusting 5 18.9
2020-Jul-13 03:30 337 0 gusting 6 18.9
2020-Jul-13 03:20 337 0 gusting 6 19.4
2020-Jul-13 03:10 315 0 gusting 5 19.4
2020-Jul-13 03:00 292 0 gusting 5 19.4
2020-Jul-13 02:50 270 0 gusting 4 20.0
2020-Jul-13 02:40 270 0 gusting 4 20.0
2020-Jul-13 02:30 270 0 gusting 6 20.0
2020-Jul-13 02:20 292 1 gusting 5 20.0
2020-Jul-13 02:10 292 1 gusting 6 20.6
2020-Jul-13 02:00 337 1 gusting 6 20.6
2020-Jul-13 01:50 315 0 gusting 3 21.1
2020-Jul-13 01:40 337 0 gusting 3 21.7
2020-Jul-13 01:30 270 1 gusting 4 22.2
2020-Jul-13 01:20 292 0 gusting 3 22.8
2020-Jul-13 01:10 270 1 gusting 6 23.3
2020-Jul-13 01:00 292 2 gusting 6 23.3